Flag for Germany Weather past 2 weeks in Lippstadt, North Rhine-Westphalia, Germany

Now
59 °F

Broken clouds.


Feels Like: 57 °F
Forecast: 53 / 64 °F
Wind: 12 mph from Southwest

Location: Paderborn / Lippstadt

Current Time: Aug 30, 2014 at 9:20:23 AM

Latest Report: Aug 30, 2014 at 8:50 AM


Visibility: N/A

Pressure: 30.04 "Hg

Humidity: 77%

Dew point: 52 °F

Location of LippstadtLocation

Historic Weather in Lippstadt — Graph

°F

Lippstadt temperature yesterday

Maximum temperature yesterday: 66 °F (at 1:20 PM)
Minimum temperature yesterday: 55 °F (at 8:50 PM)
Average temperature yesterday: 61 °F

Past Weeks' High & Low Weather Summary

 TemperatureHumidityPressure
High72 °F (Aug 28, 2:50 PM)100% (Aug 15, 9:50 PM)30.09 "Hg (Aug 15, 9:50 PM)
Low45 °F (Aug 24, 4:20 AM)43% (Aug 27, 4:20 PM)29.68 "Hg (Aug 18, 4:20 AM)
Average56 °F74%29.93 "Hg
* Reported Aug 15 7:20 AM — Aug 30 7:50 AM, Lippstadt, Weather by CustomWeather, © 2014

Note: Actual official high and low records may vary slightly from our data, if they occured in-between our weather recording intervals... More about our weather records

Advertising

Lippstadt weather history for previous 24 hours

 ConditionsComfort  
Time TempWeatherWind HumidityBarometerVisibility
7:50 AM
Aug 30
59 °FBroken clouds.10 mph72%30.01 "HgN/A
7:20 AM57 °FPartly cloudy.10 mph77%30.01 "HgN/A
6:50 AM57 °FPartly cloudy.12 mph77%30.01 "HgN/A
6:20 AM57 °FClear.12 mph77%30.01 "Hg10 mi
5:50 AM57 °FClear.12 mph77%30.01 "Hg10 mi
5:20 AM57 °FClear.8 mph77%30.01 "Hg10 mi
4:50 AM57 °FClear.8 mph77%30.04 "Hg10 mi
4:20 AM57 °FClear.9 mph77%30.04 "Hg10 mi
12:50 AM57 °FClear.8 mph77%30.04 "Hg10 mi
12:20 AM57 °FClear.8 mph82%30.04 "Hg10 mi
11:50 PM
Aug 29
55 °FPassing clouds.6 mph88%30.04 "HgN/A
11:20 PM55 °FClear.7 mph94%30.04 "Hg10 mi
9:20 PM57 °FClear.6 mph82%30.01 "Hg10 mi
8:50 PM55 °FSunny.7 mph82%30.01 "Hg10 mi
8:20 PM59 °FSunny.7 mph77%30.01 "Hg10 mi
7:50 PM61 °FSunny.6 mph83%30.01 "Hg10 mi
7:20 PM63 °FSunny.5 mph77%30.01 "Hg10 mi
6:50 PM63 °FScattered clouds.6 mph73%30.01 "HgN/A
6:20 PM63 °FPartly sunny.5 mph77%30.01 "HgN/A
5:50 PM64 °FBroken clouds.5 mph73%30.01 "HgN/A
5:20 PM63 °FBroken clouds.6 mph77%30.01 "HgN/A
4:50 PM63 °FBroken clouds.6 mph77%30.01 "HgN/A
4:20 PM61 °FScattered clouds.9 mph83%30.04 "HgN/A
3:50 PM61 °FLight rain. Scattered clouds.8 mph88%30.04 "HgN/A
3:20 PM63 °FLight rain. Scattered clouds.14 mph77%30.01 "HgN/A
2:50 PM66 °FScattered clouds.10 mph68%30.01 "HgN/A
2:20 PM64 °FScattered clouds.10 mph73%30.01 "HgN/A
1:50 PM64 °FSprinkles. Scattered clouds.7 mph73%30.01 "HgN/A
1:20 PM66 °FScattered clouds.8 mph68%30.01 "HgN/A
12:50 PM64 °FScattered clouds.6 mph73%30.01 "HgN/A
12:20 PM64 °FScattered clouds.10 mph68%30.01 "HgN/A
11:50 AM64 °FScattered clouds.7 mph78%30.01 "HgN/A
11:20 AM63 °FScattered clouds.8 mph73%30.01 "HgN/A
10:50 AM63 °FScattered clouds.9 mph77%30.01 "HgN/A
10:20 AM63 °FScattered clouds.9 mph77%30.01 "HgN/A
9:50 AM61 °FScattered clouds.8 mph88%30.01 "HgN/A
9:20 AM61 °FSunny.8 mph88%29.98 "Hg10 mi
Weather by CustomWeather, © 2014

See weather overviewHow to use our weather pages